Flag for U.S.A. Weather past 2 weeks in Wake Island, Wake Island, U.S.A.

Now
74 °F

Mostly cloudy.


Feels Like: 73 °F
Forecast: 75 / 82 °F
Wind: 10 mph from North

Location: Wake Island Airfld

Current Time: Feb 2, 2015 at 7:13:26 AM

Latest Report: Feb 2, 2015 at 6:58 AM


Visibility: N/A

Pressure: 29.81 "Hg

Humidity: 91%

Dew point: 72 °F

Location of Wake IslandLocation

Historic Weather in Wake Island — Graph

°F

Wake Island temperature yesterday

Maximum temperature yesterday: 83 °F (at 12:58 PM)
Minimum temperature yesterday: 76 °F (at 6:58 PM)
Average temperature yesterday: 79 °F

Past Weeks' High & Low Weather Summary

 TemperatureHumidityPressure
High85 °F (Jan 19, 1:58 PM)96% (Jan 31, 4:58 PM)30.13 "Hg (Jan 31, 4:58 PM)
Low72 °F (Jan 27, 4:58 AM)49% (Jan 24, 1:58 PM)29.74 "Hg (Feb 1, 3:03 PM)
Average78 °F74%29.96 "Hg
* Reported Jan 18 5:58 AM — Feb 2 5:58 AM, Wake Island, Weather by CustomWeather, © 2014

Note: Actual official high and low records may vary slightly from our data, if they occured in-between our weather recording intervals... More about our weather records

Advertising

Wake Island weather history for previous 24 hours

 ConditionsComfort  
Time TempWeatherWind HumidityBarometerVisibility
5:58 AM
Feb 2
75 °FLight rain. Mostly cloudy.13 mph89%29.80 "HgN/A
5:03 AM75 °FPassing clouds.12 mph89%29.77 "HgN/A
3:58 AM75 °FPassing clouds.14 mph93%29.79 "HgN/A
2:58 AM75 °FMostly cloudy.13 mph94%29.80 "HgN/A
2:01 AM75 °FLight rain. Fog.8 mph94%29.80 "Hg4 mi
1:03 AM75 °FLight rain. Fog.12 mph94%29.80 "Hg1 mi
12:58 AM75 °FLight rain. Fog.12 mph94%29.82 "Hg2 mi
11:58 PM
Feb 1
77 °FPassing clouds.6 mph87%29.82 "HgN/A
10:58 PM77 °FClear.7 mph87%29.82 "HgN/A
9:58 PM77 °FPassing clouds.10 mph88%29.82 "HgN/A
9:03 PM77 °FPassing clouds.8 mph89%29.80 "HgN/A
8:58 PM77 °FPassing clouds.7 mph90%29.82 "HgN/A
8:03 PM77 °FPassing clouds.8 mph89%29.78 "HgN/A
7:58 PM77 °FPassing clouds.9 mph92%29.80 "HgN/A
6:58 PM76 °FBroken clouds.7 mph94%29.78 "HgN/A
5:58 PM80 °FPassing clouds.7 mph80%29.77 "HgN/A
4:58 PM80 °FSunny.7 mph81%29.76 "HgN/A
4:03 PM81 °FScattered clouds.8 mph79%29.74 "HgN/A
3:58 PM81 °FPartly sunny.7 mph79%29.76 "HgN/A
3:03 PM82 °FMostly cloudy.8 mph74%29.74 "HgN/A
2:58 PM82 °FMostly cloudy.8 mph78%29.77 "HgN/A
1:58 PM81 °FPassing clouds.9 mph82%29.79 "HgN/A
12:58 PM83 °FSunny.8 mph75%29.82 "HgN/A
11:58 AM81 °FPassing clouds.8 mph83%29.85 "HgN/A
11:03 AM82 °FPartly sunny.8 mph79%29.85 "HgN/A
10:58 AM82 °FBroken clouds.8 mph78%29.87 "HgN/A
9:58 AM81 °FPartly sunny.8 mph80%29.87 "HgN/A
8:58 AM80 °FPassing clouds.12 mph84%29.86 "HgN/A
7:58 AM78 °FPassing clouds.13 mph88%29.84 "HgN/A
Weather by CustomWeather, © 2014

See weather overviewHow to use our weather pages